This is the latest recevied weather packets stored in our database for station/object N7WSS. If no packets are shown the sender has not sent any weather packets the latest 10 day(s).
| Time | Temp. | Humidity | Pressure | Rain* | Wind** | Luminosity | Snow |
|---|---|---|---|---|---|---|---|
| 1777333899 | 27.78° C | 11% | 1009.1 hPa | 0 mm | - | - | - |
| 1777333596 | 27.78° C | 12% | 1009.2 hPa | 0 mm | - | - | - |
| 1777333292 | 27.78° C | 13% | 1009.2 hPa | 0 mm | - | - | - |
| 1777332991 | 27.78° C | 13% | 1009 hPa | 0 mm | - | - | - |
| 1777332689 | 27.78° C | 14% | 1009.1 hPa | 0 mm | - | - | - |
| 1777332385 | 28.33° C | 15% | 1009.2 hPa | 0 mm | - | - | - |
| 1777332082 | 27.78° C | 15% | 1009 hPa | 0 mm | - | - | - |
| 1777331780 | 28.33° C | 13% | 1009.1 hPa | 0 mm | - | - | - |
| 1777331476 | 27.78° C | 11% | 1009.1 hPa | 0 mm | - | - | - |
| 1777331175 | 27.78° C | 12% | 1009.2 hPa | 0 mm | - | - | - |
| 1777330871 | 27.78° C | 15% | 1009.1 hPa | 0 mm | - | - | - |
| 1777330568 | 27.78° C | 15% | 1009.2 hPa | 0 mm | - | - | - |
| 1777330265 | 28.33° C | 15% | 1009.2 hPa | 0 mm | - | - | - |
| 1777329963 | 27.22° C | 17% | 1009.3 hPa | 0 mm | - | - | - |
| 1777329662 | 27.78° C | 17% | 1009.4 hPa | 0 mm | - | - | - |
| 1777329360 | 27.78° C | 17% | 1009.5 hPa | 0 mm | - | - | - |
| 1777329056 | 27.22° C | 17% | 1009.5 hPa | 0 mm | - | - | - |
| 1777328754 | 27.22° C | 17% | 1009.6 hPa | 0 mm | - | - | - |
| 1777328451 | 27.78° C | 17% | 1009.4 hPa | 0 mm | - | - | - |
| 1777328150 | 27.22° C | 18% | 1009.7 hPa | 0 mm | - | - | - |
| 1777327848 | 27.78° C | 17% | 1009.7 hPa | 0 mm | - | - | - |
| 1777327545 | 27.78° C | 17% | 1009.9 hPa | 0 mm | - | - | - |
| 1777327243 | 27.78° C | 17% | 1009.9 hPa | 0 mm | - | - | - |
| 1777326940 | 27.78° C | 18% | 1010 hPa | 0 mm | - | - | - |
| 1777326637 | 26.67° C | 17% | 1009.9 hPa | 0 mm | - | - | - |
* Rain latest hour (hover to see other rain measurements)
** Current wind speed in m/s (hover to see current wind gust speed)